Weather History for Hot Springs, VA

Change the Weather History Date:

Thursday, January 14, 2010

  Actual Average Record
Temperature  
Mean Temperature 34 °F -  
Max Temperature 42 °F 31 °F 60 °F (2007)
Min Temperature 26 °F 17 °F 1 °F (1997)
Degree Days  
Heating Degree Days 31    
Moisture  
Dew Point 10 °F    
Average Humidity 35    
Maximum Humidity 55    
Minimum Humidity 27    
Precipitation  
Precipitation 0.00 in - - ()
Sea Level Pressure  
Sea Level Pressure 30.21 in    
Wind  
Wind Speed 13 mph (West)    
Max Wind Speed 21 mph    
Max Gust Speed -    
Visibility 10 miles    
Events      
Averages and records for this station are not official NWS values.
T = Trace of Precipitation, MM = Missing Value Source: NWS Daily Summary

Daily Weather History Graph

Daily Weather History Graph

Search for Another Location

Airport:

Trip Planner

Search our weather history database for the weather conditions in past years. The results will help you decide how hot, cold, wet, or windy it might be!

Date:

Astronomy

Jan. 14, 2010 Rise Set
Actual Time 7:34 AM EST 5:22 PM EST
Civil Twilight 7:05 AM EST 5:51 PM EST
Nautical Twilight 6:33 AM EST 6:24 PM EST
Astronomical Twilight 6:01 AM EST 6:55 PM EST
Moon 7:09 AM EST (1/14) 4:57 PM EST (1/14)
Length of Visible Light 10h 46m
Length of Day
9h 48m
Waning Crescent, 0% of the Moon is Illuminated
Jan 14
Waning Crescent
Jan 15
New
Jan 23
First Quarter
Jan 30
Full
Feb 5
Last Quarter

Hourly Weather History & Observations

Time (EST) Temp. Windchill Dew Point Humidity Pressure Visibility Wind Dir Wind Speed Gust Speed Precip Events Conditions
12:20 AM 28.4 °F 19.1 °F 8.6 °F 43% 30.17 in 10.0 mi WNW 10.4 mph - N/A   Clear
12:40 AM 28.4 °F 19.1 °F 10.4 °F 47% 30.17 in 10.0 mi West 10.4 mph - N/A   Clear
4:19 AM 26.6 °F 13.8 °F 10.4 °F 51% 30.19 in 10.0 mi West 17.3 mph - N/A   Clear
4:40 AM 26.6 °F 13.8 °F 10.4 °F 51% 30.19 in 10.0 mi West 17.3 mph - N/A   Clear
5:00 AM 26.6 °F 13.8 °F 10.4 °F 51% 30.19 in 10.0 mi West 17.3 mph - N/A   Clear
5:20 AM 26.6 °F 13.4 °F 12.2 °F 55% 30.19 in 10.0 mi West 18.4 mph - N/A   Clear
5:39 AM 30.2 °F 18.5 °F 5.0 °F 34% 30.18 in 10.0 mi West 17.3 mph - N/A   Clear
5:59 AM 30.2 °F 17.4 °F 3.2 °F 32% 30.19 in 10.0 mi West 20.7 mph - N/A   Clear
6:20 AM 30.2 °F 18.1 °F 1.4 °F 29% 30.19 in 10.0 mi West 18.4 mph - N/A   Clear
6:40 AM 30.2 °F 18.1 °F 1.4 °F 29% 30.20 in 10.0 mi West 18.4 mph - N/A   Clear
7:00 AM 30.2 °F 18.1 °F 1.4 °F 29% 30.20 in 10.0 mi West 18.4 mph - N/A   Scattered Clouds
7:20 AM 32.0 °F 21.2 °F 1.4 °F 27% 30.21 in 10.0 mi WNW 16.1 mph - N/A   Clear
7:40 AM 32.0 °F 21.6 °F 3.2 °F 30% 30.21 in 10.0 mi West 15.0 mph - N/A   Clear
8:00 AM 33.8 °F 24.3 °F 3.2 °F 28% 30.21 in 10.0 mi WNW 13.8 mph - N/A   Clear
8:19 AM 35.6 °F 26.2 °F 5.0 °F 28% 30.22 in - West 15.0 mph - N/A   Clear
8:40 AM 35.6 °F 26.2 °F 5.0 °F 28% 30.22 in - West 15.0 mph - N/A   Clear
9:00 AM 33.8 °F 24.8 °F 6.8 °F 32% 30.23 in - West 12.7 mph - N/A   Clear
9:20 AM 35.6 °F 27.1 °F 6.8 °F 30% 30.23 in - West 12.7 mph - N/A   Clear
9:40 AM 35.6 °F 26.6 °F 6.8 °F 30% 30.24 in - West 13.8 mph - N/A   Clear
9:59 AM 33.8 °F 24.8 °F 5.0 °F 30% 30.25 in - West 12.7 mph - N/A   Clear
10:20 AM 33.8 °F 24.8 °F 5.0 °F 30% 30.25 in - West 12.7 mph - N/A   Clear
10:39 AM 35.6 °F 28.0 °F 6.8 °F 30% 30.25 in - West 10.4 mph - N/A   Clear
11:00 AM 35.6 °F 28.6 °F 6.8 °F 30% 30.25 in - West 9.2 mph - N/A   Clear
11:20 AM 37.4 °F 30.3 °F 6.8 °F 28% 30.24 in - West 10.4 mph - N/A   Clear
11:39 AM 37.4 °F 29.3 °F 8.6 °F 30% 30.24 in - West 12.7 mph - N/A   Clear
12:01 PM 39.2 °F 31.6 °F 8.6 °F 28% 30.23 in - West 12.7 mph - N/A   Clear
12:19 PM 39.2 °F 33.0 °F 8.6 °F 28% 30.22 in - West 9.2 mph - N/A   Clear
12:41 PM 39.2 °F 33.0 °F 8.6 °F 28% 30.20 in - West 9.2 mph - N/A   Clear
1:00 PM 42.8 °F 38.0 °F 12.2 °F 29% 30.20 in - West 8.1 mph - N/A   Clear
1:20 PM 41.0 °F 35.2 °F 12.2 °F 31% 30.20 in - West 9.2 mph - N/A   Clear
1:41 PM 42.8 °F 38.6 °F 15.8 °F 34% 30.20 in - West 6.9 mph - N/A   Clear
2:00 PM 41.0 °F 36.4 °F 15.8 °F 36% 30.20 in - West 6.9 mph - N/A   Clear
2:20 PM 41.0 °F 35.8 °F 15.8 °F 36% 30.20 in - West 8.1 mph - N/A   Clear
2:40 PM 39.2 °F 34.2 °F 15.8 °F 39% 30.20 in - WSW 6.9 mph - N/A   Clear
3:00 PM 41.0 °F 36.4 °F 14.0 °F 33% 30.20 in - West 6.9 mph - N/A   Scattered Clouds
3:21 PM 41.0 °F 38.0 °F 12.2 °F 31% 30.20 in - West 4.6 mph - N/A   Clear
3:40 PM 41.0 °F 37.1 °F 15.8 °F 36% 30.19 in - WSW 5.8 mph - N/A   Clear
4:00 PM 41.0 °F 37.1 °F 15.8 °F 36% 30.20 in - WSW 5.8 mph - N/A   Clear
4:20 PM 37.4 °F 32.1 °F 15.8 °F 41% 30.20 in 10.0 mi West 6.9 mph - N/A   Clear
4:40 PM 37.4 °F 32.8 °F 15.8 °F 41% 30.19 in 10.0 mi West 5.8 mph - N/A   Clear
5:01 PM 37.4 °F 32.1 °F 15.8 °F 41% 30.20 in 10.0 mi West 6.9 mph - N/A   Clear
5:20 PM 37.4 °F 30.8 °F 14.0 °F 38% 30.20 in - WSW 9.2 mph - N/A   Clear
5:40 PM 33.8 °F 25.3 °F 14.0 °F 44% 30.20 in 10.0 mi WSW 11.5 mph - N/A   Clear
6:01 PM 37.4 °F 29.8 °F 10.4 °F 33% 30.20 in 10.0 mi West 11.5 mph - N/A   Clear
6:20 PM 37.4 °F 29.8 °F 12.2 °F 36% 30.21 in 10.0 mi West 11.5 mph - N/A   Clear
6:40 PM 37.4 °F 29.8 °F 12.2 °F 36% 30.20 in 10.0 mi West 11.5 mph - N/A   Clear
7:00 PM 35.6 °F 28.0 °F 12.2 °F 38% 30.20 in 10.0 mi West 10.4 mph - N/A   Clear
7:20 PM 33.8 °F 25.8 °F 12.2 °F 41% 30.21 in - WSW 10.4 mph - N/A   Clear
7:40 PM 37.4 °F 29.8 °F 10.4 °F 33% 30.21 in - WSW 11.5 mph - N/A   Clear
8:01 PM 35.6 °F 26.6 °F 10.4 °F 35% 30.21 in - West 13.8 mph - N/A   Clear
8:20 PM 37.4 °F 29.3 °F 10.4 °F 33% 30.21 in - West 12.7 mph - N/A   Clear
8:41 PM 37.4 °F 28.5 °F 10.4 °F 33% 30.21 in - West 15.0 mph - N/A   Clear
9:01 PM 37.4 °F 28.9 °F 10.4 °F 33% 30.21 in - West 13.8 mph - N/A   Clear
9:20 PM 37.4 °F 28.9 °F 10.4 °F 33% 30.21 in - West 13.8 mph - N/A   Clear
9:40 PM 37.4 °F 28.5 °F 10.4 °F 33% 30.21 in - West 15.0 mph - N/A   Clear
10:00 PM 37.4 °F 27.2 °F 10.4 °F 33% 30.21 in - West 19.6 mph - N/A   Clear
10:20 PM 37.4 °F 27.5 °F 10.4 °F 33% 30.20 in - West 18.4 mph - N/A   Clear
10:41 PM 37.4 °F 27.8 °F 10.4 °F 33% 30.21 in - West 17.3 mph - N/A   Clear
11:00 PM 35.6 °F 25.5 °F 10.4 °F 35% 30.21 in - West 17.3 mph - N/A   Clear
11:20 PM 35.6 °F 25.5 °F 10.4 °F 35% 30.20 in - West 17.3 mph - N/A   Clear
11:40 PM 35.6 °F 26.2 °F 10.4 °F 35% 30.20 in - West 15.0 mph - N/A   Clear